Tracking 27420 objects as of 11-Jun-2023
HD Live streaming from Space Station
objects crossing your sky now

STARLINK-6082

Track STARLINK-6082 now!
10-day predictions
STARLINK-6082 is classified as:


NORAD ID: 56110
Int'l Code: 2023-046T
Perigee: 565.2 km
Apogee: 567.2 km
Inclination: 43.0 °
Period: 95.8 minutes
Semi major axis: 6937 km
RCS: Unknown
Launch date: March 29, 2023
Source: United States (US)
Launch site: AIR FORCE EASTERN TEST RANGE (AFETR)
Your satellite tracking list
Your tracking list is empty




NASA's NSSDC Master Catalog

Two Line Element Set (TLE):
1 56110U 23046T   23161.40859386  .00000959  00000-0  86036-4 0  9994
2 56110  43.0017 210.3961 0001438 270.6465  89.4212 15.02528333 11143
Source of the keplerian elements: AFSPC